Home   Weather   Unna   Past weeks

Flag for Germany Past Weather in Unna, North Rhine-Westphalia, Germany — Yesterday and Last 2 Weeks

Now
59 °F

Clear.


Feels Like: 58 °F
Forecast: 57 / 64 °F
Wind: 7 mph from South

Location: Paderborn / Lippstadt

Current Time: Jul 24, 2017 at 3:02:43 am

Latest Report: Jul 24, 2017 at 2:20 am


Visibility: 10 mi

Pressure: 29.89 "Hg

Humidity: 68%

Dew Point: 48 °F

Location of UnnaLocation

Past Weather in Unna — Graph

°F

Unna Temperature Yesterday

Maximum temperature yesterday: 68 °F (at 12:20 am)
Minimum temperature yesterday: 59 °F (at 8:20 am)
Average temperature yesterday: 64 °F

High & Low Weather Summary for the Past Weeks

 TemperatureHumidityPressure
High90 °F (Jul 19, 4:20 pm)100% (Jul 9, 6:20 am)30.24 "Hg (Jul 9, 6:20 am)
Low48 °F (Jul 13, 4:50 am)33% (Jul 19, 4:20 pm)29.68 "Hg (Jul 12, 2:50 pm)
Average65 °F71%29.98 "Hg
* Reported Jul 9 1:20 am — Jul 24 1:50 am, Unna. Weather by CustomWeather, © 2017

Note: Actual official high and low records may vary slightly from our data, if they occured in-between our weather recording intervals... More about our weather records

Advertising

Unna Weather History for the Previous 24 Hours

Scroll right to see more
 ConditionsComfort  
Time TempWeatherWind HumidityBarometerVisibility
1:50 am
Mon, Jul 24
59 °FClear.9 mph68%29.89 "Hg10 mi
1:20 am61 °FClear.9 mph63%29.92 "Hg10 mi
12:50 am61 °FClear.8 mph63%29.92 "Hg10 mi
12:20 am61 °FClear.7 mph68%29.92 "Hg10 mi
11:50 pm
Sun, Jul 23
61 °FClear.8 mph68%29.95 "Hg10 mi
11:20 pm61 °FClear.7 mph68%29.95 "Hg10 mi
10:20 pm61 °FClear.8 mph68%29.95 "Hg10 mi
9:20 pm61 °FSunny.7 mph63%29.95 "Hg10 mi
8:20 pm64 °FSunny.10 mph52%29.92 "Hg10 mi
7:50 pm63 °FPassing clouds.12 mph59%29.95 "HgN/A
7:20 pm64 °FScattered clouds.7 mph56%29.95 "HgN/A
6:50 pm66 °FScattered clouds.14 mph49%29.92 "HgN/A
6:20 pm68 °FScattered clouds.17 mph46%29.92 "HgN/A
5:20 pm66 °FScattered clouds.13 mph49%29.95 "HgN/A
4:50 pm66 °FScattered clouds.15 mph52%29.95 "HgN/A
4:20 pm66 °FScattered clouds.8 mph56%29.95 "HgN/A
3:50 pm66 °FScattered clouds.9 mph52%29.95 "HgN/A
3:20 pm66 °FScattered clouds.10 mph60%29.95 "HgN/A
2:50 pm64 °FScattered clouds.12 mph56%29.95 "HgN/A
2:20 pm66 °FScattered clouds.12 mph49%29.95 "HgN/A
1:50 pm66 °FScattered clouds.17 mph49%29.95 "HgN/A
1:20 pm66 °FPartly sunny.20 mph46%29.95 "HgN/A
12:50 pm64 °FBroken clouds.17 mph56%29.95 "HgN/A
12:20 pm66 °FScattered clouds.15 mph56%29.95 "HgN/A
11:50 am64 °FScattered clouds.12 mph60%29.95 "HgN/A
11:20 am63 °FPartly sunny.13 mph64%29.95 "HgN/A
10:50 am64 °FPartly sunny.21 mph64%29.95 "HgN/A
10:20 am64 °FScattered clouds.17 mph64%29.92 "HgN/A
9:50 am63 °FScattered clouds.10 mph68%29.92 "HgN/A
9:20 am63 °FScattered clouds.12 mph73%29.92 "HgN/A
8:20 am59 °FBroken clouds.13 mph94%29.92 "HgN/A
7:20 am63 °FBroken clouds.7 mph88%29.89 "HgN/A
6:20 am61 °FPartly sunny.7 mph100%29.86 "HgN/A
5:50 am61 °FScattered clouds.3 mph100%29.86 "HgN/A
5:20 am61 °FPassing clouds.3 mph100%29.89 "HgN/A
4:50 am61 °FPassing clouds.1 mph100%29.89 "HgN/A
4:20 am61 °FPassing clouds.6 mph100%29.89 "HgN/A
3:20 am61 °FThundershowers. Passing clouds.9 mph100%29.86 "HgN/A
Weather by CustomWeather, © 2017

See weather overviewHow to use our weather pages